Flag for Saudi Arabia Weather past 2 weeks in Medina, Saudi Arabia

Now
84 °F

Scattered clouds.


Feels Like: 81 °F
Forecast: 73 / 106 °F
Wind: 3 mph from North

Location: Madinah

Current Time: May 23, 2015 at 6:36:57 AM

Latest Report: May 23, 2015 at 6:00 AM


Visibility: 5 mi

Pressure: 29.89 "Hg

Humidity: 11%

Dew point: 25 °F

Location of MedinaLocation

Historic Weather in Medina — Graph

°F

Medina temperature yesterday

Maximum temperature yesterday: 108 °F (at 3:00 PM)
Minimum temperature yesterday: 88 °F (at 5:00 AM)
Average temperature yesterday: 98 °F

Past Weeks' High & Low Weather Summary

 TemperatureHumidityPressure
High109 °F (May 19, 3:00 PM)40% (May 8, 5:00 AM)30.09 "Hg (May 8, 5:00 AM)
Low73 °F (May 10, 6:00 AM)1% (May 12, 4:00 PM)29.80 "Hg (May 10, 5:00 PM)
Average93 °F9%29.93 "Hg
* Reported May 8 5:00 AM — May 23 5:00 AM, Medina, Weather by CustomWeather, © 2015

Note: Actual official high and low records may vary slightly from our data, if they occured in-between our weather recording intervals... More about our weather records

Advertising

Medina weather history for previous 24 hours

 ConditionsComfort  
Time TempWeatherWind HumidityBarometerVisibility
5:00 AM
Sat, May 23
88 °FClear.3 mph10%29.89 "Hg10 mi
4:00 AM86 °FClear.6 mph11%29.86 "Hg10 mi
3:00 AM86 °FClear.6 mph11%29.89 "Hg10 mi
2:00 AM90 °FClear.6 mph9%29.86 "Hg10 mi
1:00 AM95 °FClear.10 mph5%29.89 "Hg10 mi
12:00 AM97 °FClear.20 mph5%29.89 "Hg10 mi
11:00 PM
Fri, May 22
97 °FClear.15 mph6%29.89 "Hg10 mi
10:00 PM99 °FClear.14 mph7%29.89 "Hg10 mi
9:00 PM100 °FClear.14 mph6%29.86 "Hg10 mi
8:00 PM100 °FClear.12 mph7%29.86 "Hg10 mi
7:00 PM102 °FClear.14 mph4%29.83 "Hg10 mi
6:00 PM106 °FSunny.17 mph3%29.80 "Hg10 mi
5:00 PM106 °FScattered clouds.25 mph3%29.80 "HgN/A
4:00 PM108 °FSunny.20 mph3%29.80 "Hg10 mi
3:00 PM108 °FScattered clouds.15 mph3%29.83 "HgN/A
2:00 PM106 °FSunny.7 mph3%29.83 "Hg10 mi
1:00 PM104 °FSunny.12 mph4%29.86 "Hg10 mi
12:00 PM102 °FSunny.No wind4%29.89 "Hg10 mi
11:00 AM99 °FSunny.9 mph5%29.89 "Hg10 mi
10:00 AM97 °FSunny.No wind6%29.92 "Hg10 mi
9:00 AM95 °FPassing clouds.No wind6%29.92 "HgN/A
8:00 AM91 °FPassing clouds.7 mph8%29.92 "HgN/A
7:00 AM88 °FScattered clouds.6 mph12%29.92 "HgN/A
6:00 AM88 °FScattered clouds.No wind12%29.92 "HgN/A
Weather by CustomWeather, © 2015

See weather overviewHow to use our weather pages